• In United Kingdom
  • List of Countries
  • For 7 days
  • Water Temperature
  • Satellite Maps
  • Weather Map
  • Weather Widgets
  • user-avatar
    Login

    Hourly Weather Tirana

    Today, 11 December, Monday

    Time Temperature Precipitation Wind Pressure Humidity
    00:00 +2°C° 0 mm 6 mps 757 mmHg 74%
    01:00 +3°C° 0 mm 7 mps 757 mmHg 69%
    02:00 +3°C° 0 mm 7 mps 757 mmHg 69%
    03:00 +3°C° 0 mm 7 mps 757 mmHg 68%
    04:00 +4°C° 0 mm 7 mps 757 mmHg 68%
    05:00 +4°C° 0 mm 7 mps 757 mmHg 68%
    06:00 +4°C° 0 mm 7 mps 757 mmHg 68%
    07:00 +4°C° 0 mm 7 mps 756 mmHg 69%
    08:00 +6°C° 0 mm 7 mps 756 mmHg 67%
    09:00 +9°C° 0 mm 7 mps 756 mmHg 65%
    10:00 +10°C° 0 mm 7 mps 756 mmHg 63%
    11:00 +11°C° 0 mm 8 mps 756 mmHg 63%
    12:00 +12°C° 0 mm 8 mps 756 mmHg 63%
    13:00 +12°C° 0 mm 9 mps 755 mmHg 62%
    14:00 +11°C° 0 mm 8 mps 755 mmHg 68%
    15:00 +10°C° 0 mm 8 mps 756 mmHg 73%
    16:00 +9°C° 0 mm 8 mps 756 mmHg 79%
    17:00 +9°C° 0 mm 8 mps 756 mmHg 79%
    18:00 +9°C° 0 mm 8 mps 756 mmHg 80%
    19:00 +9°C° 0 mm 8 mps 756 mmHg 80%
    20:00 +9°C° 0 mm 8 mps 756 mmHg 80%
    21:00 +9°C° 0 mm 8 mps 756 mmHg 79%
    22:00 +7°C° 0 mm 8 mps 757 mmHg 79%
    23:00 +9°C° 0 mm 8 mps 757 mmHg 80%

    Tomorrow, 12 December, Tuesday

    Time Temperature Precipitation Wind Pressure Humidity
    00:00 +9°C° 0 mm 8 mps 757 mmHg 80%
    01:00 +9°C° 0 mm 8 mps 757 mmHg 81%
    02:00 +9°C° 0 mm 8 mps 757 mmHg 81%
    03:00 +9°C° 0 mm 7 mps 757 mmHg 81%
    04:00 +9°C° 0 mm 7 mps 757 mmHg 82%
    05:00 +9°C° 0 mm 7 mps 757 mmHg 82%
    06:00 +10°C° 0 mm 7 mps 757 mmHg 82%
    07:00 +10°C° 0 mm 6 mps 757 mmHg 82%
    08:00 +11°C° 0 mm 6 mps 757 mmHg 80%
    09:00 +13°C° 0 mm 6 mps 757 mmHg 79%
    10:00 +14°C° 0 mm 6 mps 757 mmHg 77%
    11:00 +14°C° 0 mm 6 mps 757 mmHg 76%
    12:00 +15°C° 0 mm 7 mps 757 mmHg 75%
    13:00 +16°C° 0 mm 7 mps 757 mmHg 74%
    14:00 +15°C° 0 mm 6 mps 757 mmHg 77%
    15:00 +14°C° 0 mm 6 mps 757 mmHg 80%
    16:00 +13°C° 0 mm 6 mps 758 mmHg 83%
    17:00 +13°C° 0 mm 6 mps 758 mmHg 84%
    18:00 +11°C° 0 mm 6 mps 758 mmHg 85%
    19:00 +11°C° 0 mm 6 mps 758 mmHg 85%
    20:00 +10°C° 0 mm 5 mps 758 mmHg 85%
    21:00 +10°C° 0 mm 5 mps 759 mmHg 85%
    22:00 +10°C° 0 mm 5 mps 759 mmHg 84%
    23:00 +10°C° 0 mm 5 mps 759 mmHg 84%

    Day after tomorrow, 13 December, Wednesday

    Time Temperature Precipitation Wind Pressure Humidity
    00:00 +10°C° 0 mm 5 mps 759 mmHg 84%
    01:00 +10°C° 0 mm 5 mps 759 mmHg 84%
    02:00 +10°C° 0 mm 5 mps 758 mmHg 84%
    03:00 +9°C° 0 mm 5 mps 758 mmHg 84%
    04:00 +9°C° 0 mm 5 mps 758 mmHg 84%
    05:00 +9°C° 0 mm 5 mps 758 mmHg 84%
    06:00 +9°C° 0 mm 5 mps 758 mmHg 85%
    07:00 +9°C° 0 mm 6 mps 758 mmHg 85%
    08:00 +11°C° 0 mm 6 mps 758 mmHg 81%
    09:00 +13°C° 0 mm 6 mps 758 mmHg 77%
    10:00 +14°C° 0 mm 6 mps 758 mmHg 74%
    11:00 +15°C° 0 mm 6 mps 758 mmHg 70%
    12:00 +16°C° 0 mm 7 mps 757 mmHg 67%
    13:00 +16°C° 0 mm 7 mps 757 mmHg 64%
    14:00 +15°C° 0.2 mm 6 mps 756 mmHg 70%
    15:00 +14°C° 0.2 mm 6 mps 756 mmHg 75%
    16:00 +13°C° 0.2 mm 6 mps 756 mmHg 80%
    17:00 +13°C° 0.5 mm 5 mps 756 mmHg 82%
    18:00 +12°C° 0.5 mm 5 mps 756 mmHg 84%
    19:00 +12°C° 0.5 mm 5 mps 756 mmHg 86%
    20:00 +12°C° 1.6 mm 5 mps 756 mmHg 88%
    21:00 +11°C° 1.6 mm 4 mps 756 mmHg 90%
    22:00 +11°C° 1.6 mm 4 mps 756 mmHg 92%
    23:00 +11°C° 1.2 mm 4 mps 756 mmHg 93%

    14 December, Thursday

    Time Temperature Precipitation Wind Pressure Humidity
    00:00 +11°C° 1.2 mm 4 mps 756 mmHg 95%
    01:00 +11°C° 1.2 mm 3 mps 756 mmHg 96%
    02:00 +11°C° 0.2 mm 3 mps 756 mmHg 95%
    03:00 +11°C° 0.2 mm 3 mps 755 mmHg 95%
    04:00 +10°C° 0.2 mm 3 mps 755 mmHg 95%
    05:00 +10°C° 0.1 mm 3 mps 756 mmHg 95%
    06:00 +10°C° 0.1 mm 3 mps 756 mmHg 94%
    07:00 +9°C° 0.1 mm 2 mps 756 mmHg 94%
    08:00 +10°C° 0 mm 2 mps 756 mmHg 87%
    09:00 +12°C° 0 mm 2 mps 756 mmHg 81%
    10:00 +12°C° 0 mm 2 mps 756 mmHg 74%
    11:00 +13°C° 0 mm 2 mps 756 mmHg 71%
    12:00 +13°C° 0 mm 2 mps 756 mmHg 68%
    13:00 +13°C° 0 mm 2 mps 755 mmHg 66%
    14:00 +12°C° 0 mm 2 mps 755 mmHg 69%
    15:00 +11°C° 0 mm 3 mps 755 mmHg 72%
    16:00 +10°C° 0 mm 3 mps 755 mmHg 75%
    17:00 +10°C° 0 mm 3 mps 755 mmHg 77%
    18:00 +9°C° 0 mm 3 mps 755 mmHg 78%
    19:00 +7°C° 0 mm 4 mps 755 mmHg 80%
    20:00 +7°C° 0 mm 4 mps 755 mmHg 78%
    21:00 +7°C° 0 mm 4 mps 755 mmHg 77%
    22:00 +7°C° 0 mm 4 mps 755 mmHg 75%
    23:00 +7°C° 0 mm 4 mps 755 mmHg 73%

    15 December, Friday

    Time Temperature Precipitation Wind Pressure Humidity
    00:00 +7°C° 0 mm 5 mps 755 mmHg 72%
    01:00 +7°C° 0 mm 5 mps 754 mmHg 71%
    02:00 +7°C° 0 mm 5 mps 754 mmHg 71%
    03:00 +7°C° 0 mm 5 mps 754 mmHg 72%
    04:00 +7°C° 0 mm 5 mps 753 mmHg 73%
    05:00 +7°C° 0 mm 5 mps 753 mmHg 73%
    06:00 +8°C° 0 mm 5 mps 753 mmHg 72%
    07:00 +8°C° 0 mm 6 mps 754 mmHg 72%
    08:00 +9°C° 0 mm 6 mps 753 mmHg 70%
    09:00 +10°C° 0 mm 6 mps 753 mmHg 68%
    10:00 +11°C° 0 mm 7 mps 752 mmHg 66%
    11:00 +12°C° 0 mm 7 mps 752 mmHg 66%
    12:00 +12°C° 0 mm 8 mps 751 mmHg 66%
    13:00 +13°C° 0 mm 9 mps 750 mmHg 66%
    14:00 +13°C° 0.1 mm 9 mps 750 mmHg 71%
    15:00 +12°C° 0.1 mm 9 mps 750 mmHg 76%
    16:00 +11°C° 0.1 mm 9 mps 749 mmHg 81%
    17:00 +11°C° 0.3 mm 9 mps 749 mmHg 82%
    18:00 +11°C° 0.3 mm 10 mps 749 mmHg 84%
    19:00 +9°C° 0.3 mm 10 mps 749 mmHg 85%
    20:00 +9°C° 0.5 mm 10 mps 749 mmHg 86%
    21:00 +9°C° 0.5 mm 10 mps 749 mmHg 86%
    22:00 +11°C° 0.5 mm 10 mps 749 mmHg 87%
    23:00 +11°C° 0.4 mm 10 mps 749 mmHg 88%

    16 December, Saturday

    Time Temperature Precipitation Wind Pressure Humidity
    00:00 +11°C° 0.4 mm 10 mps 749 mmHg 89%
    01:00 +11°C° 0.4 mm 10 mps 749 mmHg 90%
    02:00 +11°C° 0.2 mm 10 mps 748 mmHg 90%
    03:00 +11°C° 0.2 mm 10 mps 748 mmHg 90%
    04:00 +11°C° 0.2 mm 10 mps 748 mmHg 90%
    05:00 +11°C° 0.1 mm 10 mps 748 mmHg 89%
    06:00 +11°C° 0.1 mm 10 mps 748 mmHg 89%
    07:00 +11°C° 0.1 mm 10 mps 748 mmHg 88%
    08:00 +12°C° 0.6 mm 10 mps 748 mmHg 84%
    09:00 +13°C° 0.6 mm 10 mps 748 mmHg 80%
    10:00 +14°C° 0.6 mm 10 mps 748 mmHg 77%
    11:00 +14°C° 0.3 mm 11 mps 747 mmHg 73%
    12:00 +16°C° 0.3 mm 11 mps 747 mmHg 70%
    13:00 +15°C° 0.3 mm 12 mps 746 mmHg 67%
    14:00 +16°C° 0.5 mm 11 mps 746 mmHg 73%
    15:00 +14°C° 0.5 mm 11 mps 746 mmHg 79%
    16:00 +13°C° 0.5 mm 11 mps 746 mmHg 84%
    17:00 +12°C° 1.3 mm 10 mps 746 mmHg 85%
    18:00 +12°C° 1.3 mm 9 mps 747 mmHg 86%
    19:00 +12°C° 1.3 mm 9 mps 747 mmHg 87%
    20:00 +12°C° 1.9 mm 8 mps 747 mmHg 89%
    21:00 +11°C° 1.9 mm 6 mps 747 mmHg 91%
    22:00 +12°C° 1.9 mm 5 mps 747 mmHg 94%
    23:00 +10°C° 2.2 mm 5 mps 747 mmHg 95%
    Show more